GW3789 Weather Reports


time (UTC)temp
C
wind
direction
speed
KPH
gust
KPH
rain 1hr
cm
rain 24hr
cm
rain mn
cm
humidity
%
barometer
mb
20260504201509 9 30 0.0 1.6 0.36 2.54 2.49 93 1012.5
20260504201004 9 30 0.0 1.6 0.30 2.49 2.44 93 1012.5
20260504200508 9 51 0.0 1.6 0.28 2.44 2.36 93 1012.4
20260504200013 9 51 0.0 1.6 0.33 2.41 2.34 93 1012.4
20260504195507 9 47 0.0 1.6 0.36 2.36 2.31 93 1012.4
20260504195007 9 48 0.0 1.6 0.43 2.34 2.26 93 1012.2
20260504194519 9 47 0.0 1.6 0.51 2.29 2.24 93 1012.1
20260504194007 9 47 0.0 1.6 0.58 2.24 2.18 93 1012.0
20260504193508 9 46 0.0 1.6 0.69 2.24 2.16 93 1012.0
20260504193026 9 46 0.0 1.6 0.76 2.24 2.16 93 1011.9
20260504192509 9 48 0.0 1.6 0.81 2.21 2.16 93 1012.0
20260504192009 9 48 0.0 1.6 0.86 2.18 2.13 93 1012.0
20260504191526 10 333 0.0 1.6 0.94 2.18 2.13 93 1012.1
20260504191010 10 332 0.0 1.6 0.94 2.16 2.11 93 1012.1
20260504190509 10 200 0.0 0.0 0.94 2.13 2.06 93 1012.0
20260504190012 10 200 0.0 0.0 0.94 2.06 2.01 93 1012.1
20260504185512 10 200 0.0 1.6 0.89 1.98 1.93 92 1012.1
20260504185010 10 203 0.0 1.6 0.81 1.88 1.83 92 1012.2
20260504184519 10 138 0.0 3.2 0.74 1.78 1.70 92 1012.2
20260504184009 10 136 0.0 3.2 0.64 1.65 1.57 92 1012.1
20260504183507 10 283 1.6 4.8 0.51 1.52 1.47 92 1012.0
20260504183019 10 269 1.6 4.8 0.46 1.45 1.40 92 1012.0
20260504182506 10 274 1.6 8.0 0.41 1.40 1.32 92 1012.0
20260504182009 10 125 1.6 8.0 0.36 1.30 1.24 91 1012.0
20260504181530 10 271 3.2 8.0 0.30 1.24 1.19 91 1011.8
20260504181011 10 240 3.2 8.0 0.28 1.22 1.14 90 1011.8
20260504180506 10 242 1.6 8.0 0.25 1.17 1.12 90 1011.8
20260504180024 10 268 3.2 9.7 0.20 1.12 1.07 90 1011.7
20260504175509 10 257 4.8 9.7 0.18 1.09 1.02 90 1011.7
20260504175010 10 235 4.8 11.3 0.15 1.07 1.02 89 1011.6
20260504174526 11 285 4.8 11.3 0.10 1.02 0.97 89 1011.6
20260504174008 12 210 4.8 11.3 0.08 1.02 0.94 89 1011.5
20260504173507 12 272 4.8 9.7 0.08 1.02 0.94 90 1011.6
20260504173015 12 269 0.0 6.4 0.08 0.99 0.94 90 1011.6
20260504172507 12 247 3.2 8.0 0.05 0.97 0.91 90 1011.6
20260504172008 12 358 0.0 9.7 0.03 0.94 0.89 89 1011.7
20260504171519 12 273 4.8 9.7 0.00 0.94 0.86 88 1011.7
20260504171010 12 274 3.2 8.0 0.00 0.91 0.84 87 1011.6
20260504170509 12 285 3.2 6.4 0.00 0.91 0.84 86 1011.6
20260504151009 13 269 1.6 4.8 0.00 0.91 0.84 76 1011.6
20260504150508 13 281 1.6 4.8 0.00 0.91 0.84 74 1011.5
20260504141006 15 288 3.2 8.0 0.00 0.91 0.84 78 1011.8
20260504140507 15 293 1.6 4.8 0.00 0.91 0.84 75 1011.9
20260504130506 16 150 3.2 8.0 0.00 0.91 0.84 72 1012.3
20260504110510 15 127 6.4 11.3 0.00 0.91 0.84 71 1013.0
20260504100507 14 125 1.6 8.0 0.00 0.91 0.84 80 1013.4
20260504081535 13 303 1.6 8.0 0.00 0.91 0.84 82 1013.1
20260504081005 13 355 1.6 9.7 0.00 0.91 0.84 81 1013.1
20260504080507 13 155 1.6 11.3 0.00 0.91 0.84 80 1013.1
20260504050505 10 115 1.6 6.4 0.00 0.94 0.84 87 1012.2
20260504050009 10 134 1.6 8.0 0.00 0.94 0.84 87 1012.1
20260504045505 10 293 0.0 11.3 0.00 0.94 0.84 87 1012.2
20260504045002 10 246 1.6 11.3 0.00 0.94 0.84 86 1012.1
20260504044515 10 173 3.2 11.3 0.00 0.94 0.84 86 1012.1
20260504044003 10 13 3.2 8.0 0.00 0.94 0.84 86 1012.0
20260504043507 10 73 3.2 8.0 0.00 0.94 0.84 86 1012.2
20260504043018 10 255 3.2 12.9 0.00 0.94 0.84 86 1012.1
20260504042509 10 148 3.2 12.9 0.00 0.94 0.84 86 1012.1
20260504042009 10 171 1.6 9.7 0.00 0.94 0.84 86 1012.2
20260504041524 10 109 3.2 9.7 0.00 0.94 0.84 86 1012.2
20260504041006 10 269 1.6 6.4 0.00 0.94 0.84 86 1012.2
20260504040506 10 151 1.6 12.9 0.00 0.94 0.84 85 1012.3
20260504040027 10 84 3.2 12.9 0.00 0.94 0.84 85 1012.4
20260504035503 10 104 3.2 11.3 0.00 0.94 0.84 85 1012.4
20260504035005 10 126 1.6 11.3 0.00 0.94 0.84 85 1012.4
20260504034519 10 167 1.6 6.4 0.00 0.94 0.84 85 1012.4
20260504034003 10 115 1.6 8.0 0.00 0.94 0.84 85 1012.5
20260504033506 10 295 1.6 8.0 0.00 0.94 0.84 85 1012.4
20260504033028 10 152 3.2 9.7 0.00 0.94 0.84 85 1012.4
20260504032505 10 151 1.6 11.3 0.00 0.94 0.84 85 1012.5
20260504032009 10 158 1.6 11.3 0.00 0.94 0.84 85 1012.5
20260504031523 10 129 1.6 9.7 0.00 0.94 0.84 85 1012.5
20260504031007 10 155 1.6 9.7 0.00 0.94 0.84 85 1012.5
20260504030507 10 245 1.6 9.7 0.00 0.94 0.84 86 1012.5
20260504030025 10 124 3.2 9.7 0.00 0.94 0.84 86 1012.5
20260504025507 10 86 3.2 9.7 0.00 0.94 0.84 86 1012.5
20260504025007 10 120 3.2 11.3 0.00 0.94 0.84 86 1012.5
20260504024540 10 118 3.2 11.3 0.00 0.94 0.84 86 1012.5
20260504024009 10 127 3.2 9.7 0.00 0.94 0.84 86 1012.5
20260504023504 9 144 1.6 9.7 0.00 0.94 0.84 86 1012.5
20260504023010 9 179 1.6 9.7 0.00 0.94 0.84 86 1012.4
20260504022504 9 119 1.6 12.9 0.00 0.94 0.84 86 1012.5
20260504022012 9 150 3.2 12.9 0.00 0.94 0.84 86 1012.6
20260504021518 9 150 1.6 8.0 0.00 0.94 0.84 86 1012.7
20260504021008 9 193 1.6 8.0 0.00 0.94 0.84 87 1012.5
20260504020506 9 101 1.6 6.4 0.00 0.94 0.84 87 1012.7
20260504020022 8 120 1.6 4.8 0.00 0.94 0.84 88 1012.7
20260504015510 8 91 1.6 4.8 0.00 0.94 0.84 88 1012.8
20260504015009 8 300 0.0 3.2 0.03 0.94 0.84 88 1012.8
20260504014526 8 127 0.0 6.4 0.03 0.94 0.84 88 1012.8
20260504014014 8 191 1.6 9.7 0.05 0.94 0.84 88 1012.9
20260504013510 8 153 1.6 9.7 0.08 0.94 0.84 89 1012.9
20260504013025 8 347 0.0 3.2 0.08 0.94 0.84 89 1012.9
20260504012506 8 91 0.0 3.2 0.13 0.94 0.84 89 1012.9
20260504012006 8 261 0.0 6.4 0.15 0.94 0.84 89 1013.0
20260504011526 8 147 0.0 6.4 0.18 0.94 0.84 89 1013.1
20260504011006 8 27 0.0 4.8 0.18 0.94 0.84 90 1013.1
20260504010510 8 212 1.6 4.8 0.23 0.94 0.84 90 1013.1
20260504010018 8 161 0.0 3.2 0.25 0.94 0.84 91 1013.1
20260504005507 8 134 0.0 3.2 0.30 0.94 0.84 92 1013.2
20260504005007 8 118 0.0 3.2 0.33 0.91 0.81 92 1013.3
20260504004537 8 126 0.0 4.8 0.36 0.91 0.81 92 1013.4
20260504004009 8 142 1.6 4.8 0.38 0.89 0.79 92 1013.5
20260504003510 8 134 0.0 3.2 0.43 0.86 0.76 92 1013.5
20260504003025 8 293 0.0 3.2 0.43 0.84 0.74 92 1013.6
20260504002509 8 309 0.0 1.6 0.41 0.81 0.71 92 1013.6
20260504002009 8 109 0.0 1.6 0.38 0.79 0.69 92 1013.7
20260504001525 8 108 0.0 0.0 0.38 0.76 0.66 92 1013.7
20260504001005 8 108 0.0 3.2 0.36 0.74 0.64 92 1013.8
20260504000502 8 109 0.0 3.2 0.33 0.69 0.58 92 1013.9
20260504000003 8 285 0.0 1.6 0.33 0.66 0.56 92 1013.9
20260503235504 8 354 0.0 4.8 0.28 0.61 0.51 91 1014.0
20260503235003 8 308 1.6 4.8 0.28 0.56 0.46 91 1014.0
20260503234503 8 344 0.0 3.2 0.28 0.53 0.43 90 1014.0
20260503234003 8 321 0.0 1.6 0.23 0.48 0.38 90 1014.0
20260503233502 8 74 0.0 1.6 0.18 0.43 0.33 90 1014.0
20260503233004 8 74 0.0 1.6 0.18 0.41 0.30 89 1014.1
20260503232502 8 74 0.0 1.6 0.20 0.38 0.28 89 1014.1
20260503232002 8 127 0.0 1.6 0.23 0.38 0.28 88 1014.2
20260503231508 8 127 0.0 1.6 0.20 0.36 0.28 88 1014.2
20260503231005 8 128 0.0 1.6 0.20 0.36 0.25 87 1014.3
20260503230504 8 127 0.0 0.0 0.23 0.36 0.25 86 1014.4
20260503230008 9 127 0.0 1.6 0.23 0.33 0.23 85 1014.3
20260503225503 9 127 0.0 1.6 0.20 0.30 0.20 84 1014.4
20260503225003 9 128 0.0 1.6 0.18 0.28 0.18 84 1014.4
20260503224507 9 141 0.0 1.6 0.18 0.25 0.15 83 1014.4
20260503224005 9 136 0.0 1.6 0.18 0.25 0.15 83 1014.5
20260503223503 9 142 0.0 1.6 0.18 0.23 0.13 83 1014.6
20260503223003 9 139 0.0 3.2 0.15 0.20 0.10 83 1014.6
20260503222503 9 161 0.0 3.2 0.13 0.18 0.08 82 1014.6
20260503222002 9 147 0.0 3.2 0.10 0.15 0.05 82 1014.7
20260503221504 9 97 0.0 3.2 0.10 0.15 0.05 82 1014.7
20260503221003 10 141 0.0 3.2 0.08 0.13 0.03 81 1014.8
20260503220503 10 165 0.0 3.2 0.08 0.10 0.00 80 1014.9
20260503220008 10 179 0.0 3.2 0.05 0.08 0.00 78 1014.9
20260503215504 10 115 0.0 3.2 0.05 0.08 0.08 77 1014.9
20260503215005 10 108 0.0 3.2 0.03 0.08 0.08 77 1014.9
20260503214507 10 103 0.0 6.4 0.03 0.08 0.08 76 1014.8
20260503214003 10 158 0.0 6.4 0.00 0.05 0.05 75 1014.7
20260503213503 10 154 0.0 4.8 0.00 0.05 0.05 74 1014.7
20260503213013 10 120 0.0 4.8 0.00 0.05 0.05 74 1014.7
20260503212504 11 164 0.0 4.8 0.00 0.03 0.03 73 1014.8
20260503212004 11 142 1.6 4.8 0.00 0.03 0.03 73 1014.8
20260503211507 11 166 1.6 4.8 0.00 0.03 0.03 73 1014.8
20260503211003 11 214 0.0 4.8 0.00 0.03 0.03 73 1014.8
20260503210503 11 202 0.0 4.8 0.00 0.03 0.03 74 1014.9
20260503210008 11 185 0.0 4.8 0.00 0.03 0.03 74 1014.9
20260503205503 11 153 0.0 4.8 0.00 0.03 0.03 74 1014.9
20260503205003 11 146 0.0 8.0 0.00 0.03 0.03 74 1015.0
20260503204511 11 80 0.0 9.7 0.00 0.03 0.03 73 1015.0
20260503204005 11 331 1.6 9.7 0.00 0.03 0.03 72 1015.1
20260503203503 11 282 3.2 8.0 0.00 0.03 0.03 71 1015.1
20260503203011 11 151 1.6 9.7 0.00 0.03 0.03 71 1015.1
20260503202504 11 356 1.6 11.3 0.00 0.03 0.03 70 1015.0
20260503202004 12 151 3.2 11.3 0.00 0.03 0.03 69 1015.0